Weather History for North Adams, MA

Change the Weather History Date:

Tuesday, March 18, 2014

  Actual Average Record
Temperature  
Mean Temperature 26 °F -  
Max Temperature 43 °F 39 °F 77 °F (2012)
Min Temperature 9 °F 22 °F 9 °F (2014)
Degree Days  
Heating Degree Days 40    
Moisture  
Dew Point 5 °F    
Average Humidity 51    
Maximum Humidity 84    
Minimum Humidity 13    
Precipitation  
Precipitation 0.00 in - - ()
Sea Level Pressure  
Sea Level Pressure 30.27 in    
Wind  
Wind Speed 1 mph (ENE)    
Max Wind Speed 9 mph    
Max Gust Speed -    
Visibility 10 miles    
Events      
Averages and records for this station are not official NWS values.
T = Trace of Precipitation, MM = Missing Value Source: NWS Daily Summary

Daily Weather History Graph

Daily Weather History Graph

Search for Another Location

Airport:

Trip Planner

Search our weather history database for the weather conditions in past years. The results will help you decide how hot, cold, wet, or windy it might be!

Date:

Astronomy

Mar. 18, 2014 Rise Set
Actual Time 6:59 AM EDT 7:02 PM EDT
Civil Twilight 6:31 AM EDT 7:30 PM EDT
Nautical Twilight 5:58 AM EDT 8:03 PM EDT
Astronomical Twilight 5:25 AM EDT 8:37 PM EDT
Moon 9:20 PM EDT (3/18) 7:44 AM EDT (3/18)
Length of Visible Light 12h 59m
Length of Day
12h 03m
Waning Gibbous, 96% of the Moon is Illuminated
Mar 18
Waning Gibbous
Mar 23
Last Quarter
Mar 30
New
Apr 7
First Quarter
Apr 15
Full

Hourly Weather History & Observations

Time (EDT) Temp. Windchill Dew Point Humidity Pressure Visibility Wind Dir Wind Speed Gust Speed Precip Events Conditions
12:52 AM 12.0 °F - 6.1 °F 77% 30.19 in 10.0 mi Calm Calm - N/A   Clear
1:52 AM 10.0 °F - 3.9 °F 76% 30.21 in 10.0 mi Calm Calm - N/A   Clear
2:52 AM 10.0 °F - 5.0 °F 80% 30.21 in 10.0 mi Calm Calm - N/A   Clear
3:52 AM 10.0 °F - 6.1 °F 84% 30.21 in 10.0 mi Calm Calm - N/A   Clear
4:52 AM 10.9 °F - 3.0 °F 70% 30.23 in 10.0 mi Calm Calm - N/A   Clear
5:52 AM 10.0 °F - 1.9 °F 70% 30.24 in 10.0 mi Calm Calm - N/A   Clear
6:52 AM 9.0 °F - 1.9 °F 73% 30.27 in 10.0 mi Calm Calm - N/A   Clear
7:52 AM 10.9 °F - 3.9 °F 73% 30.29 in 10.0 mi Calm Calm - N/A   Clear
8:52 AM 14.0 °F - 5.0 °F 67% 30.30 in 10.0 mi Calm Calm - N/A   Clear
9:52 AM 19.9 °F - 3.0 °F 48% 30.31 in 10.0 mi Calm Calm - N/A   Clear
10:52 AM 28.0 °F 24.2 °F 3.0 °F 34% 30.29 in 10.0 mi Variable 3.5 mph - N/A   Clear
11:52 AM 33.1 °F 25.5 °F 3.0 °F 28% 30.29 in 10.0 mi NE 9.2 mph - N/A   Clear
12:52 PM 35.1 °F 30.1 °F -0.0 °F 23% 30.29 in 10.0 mi East 5.8 mph - N/A   Clear
1:52 PM 39.0 °F 32.8 °F 3.0 °F 22% 30.26 in 10.0 mi East 9.2 mph - N/A   Clear
2:52 PM 39.9 °F - -2.9 °F 16% 30.27 in 10.0 mi Calm Calm - N/A   Clear
3:52 PM 39.9 °F - -4.0 °F 16% 30.26 in 10.0 mi Calm Calm - N/A   Clear
4:52 PM 42.1 °F - -5.1 °F 14% 30.26 in 10.0 mi Calm Calm - N/A   Clear
5:52 PM 42.1 °F - -6.0 °F 13% 30.27 in 10.0 mi Calm Calm - N/A   Clear
6:52 PM 36.0 °F 30.3 °F 9.0 °F 33% 30.27 in 10.0 mi West 6.9 mph - N/A   Clear
7:52 PM 30.9 °F - 14.0 °F 50% 30.29 in 10.0 mi Calm Calm - N/A   Clear
8:52 PM 28.0 °F - 17.1 °F 63% 30.31 in 10.0 mi Calm Calm - N/A   Clear
9:52 PM 26.1 °F - 17.1 °F 69% 30.32 in 10.0 mi Calm Calm - N/A   Clear
10:52 PM 24.1 °F - 17.1 °F 75% 30.31 in 10.0 mi Calm Calm - N/A   Clear
11:52 PM 28.0 °F 21.7 °F 10.9 °F 49% 30.29 in 10.0 mi East 5.8 mph - N/A   Clear